When you browse on this site, cookies collect data to enhance your experience and personalize the content and advertising you see.
Visit our Privacy Policy to learn more. By continuing to use the site, you agree to this use of cookies and data.
  • In Italy
  • List of Countries
  • For 7 days
  • Water Temperature
  • Satellite Maps
  • Weather Map
  • Weather Widgets
  • user-avatar
    Login

    Hourly Weather Armawir

    Today, 18 January, Friday

    Time Temperature Precipitation Wind Pressure Humidity
    00:00 -2°C° 0 mm 4 mps 685 mmHg 52%
    01:00 -3°C° 0 mm 4 mps 686 mmHg 52%
    02:00 -3°C° 0 mm 4 mps 686 mmHg 52%
    03:00 -4°C° 0 mm 3 mps 687 mmHg 52%
    04:00 -4°C° 0 mm 3 mps 687 mmHg 51%
    05:00 -4°C° 0 mm 3 mps 688 mmHg 51%
    06:00 -4°C° 0 mm 3 mps 688 mmHg 51%
    07:00 -4°C° 0 mm 3 mps 688 mmHg 48%
    08:00 -2°C° 0 mm 3 mps 689 mmHg 46%
    09:00 -2°C° 0 mm 3 mps 689 mmHg 44%
    10:00 -1°C° 0 mm 3 mps 689 mmHg 42%
    11:00 0°C° 0 mm 3 mps 689 mmHg 40%
    12:00 +2°C° 0 mm 2 mps 689 mmHg 39%
    13:00 +3°C° 0 mm 2 mps 689 mmHg 39%
    14:00 +3°C° 0 mm 2 mps 689 mmHg 39%
    15:00 +3°C° 0 mm 2 mps 689 mmHg 39%
    16:00 +2°C° 0 mm 2 mps 689 mmHg 43%
    17:00 +1°C° 0 mm 2 mps 690 mmHg 46%
    18:00 -1°C° 0 mm 2 mps 690 mmHg 50%
    19:00 -2°C° 0 mm 2 mps 691 mmHg 50%
    20:00 -2°C° 0 mm 2 mps 691 mmHg 50%
    21:00 -2°C° 0 mm 2 mps 691 mmHg 50%
    22:00 -3°C° 0 mm 2 mps 691 mmHg 49%
    23:00 -3°C° 0 mm 2 mps 691 mmHg 48%

    Tomorrow, 19 January, Saturday

    Time Temperature Precipitation Wind Pressure Humidity
    00:00 -3°C° 0 mm 2 mps 692 mmHg 48%
    01:00 -3°C° 0 mm 2 mps 692 mmHg 47%
    02:00 -4°C° 0 mm 2 mps 692 mmHg 46%
    03:00 -4°C° 0 mm 2 mps 692 mmHg 46%
    04:00 -4°C° 0 mm 2 mps 691 mmHg 45%
    05:00 -4°C° 0 mm 2 mps 691 mmHg 45%
    06:00 -4°C° 0 mm 2 mps 691 mmHg 44%
    07:00 -3°C° 0 mm 2 mps 691 mmHg 42%
    08:00 -3°C° 0 mm 2 mps 691 mmHg 39%
    09:00 -2°C° 0 mm 2 mps 692 mmHg 37%
    10:00 -1°C° 0 mm 2 mps 691 mmHg 35%
    11:00 +2°C° 0 mm 1 mps 691 mmHg 32%
    12:00 +4°C° 0 mm 1 mps 690 mmHg 30%
    13:00 +4°C° 0 mm 1 mps 690 mmHg 30%
    14:00 +4°C° 0 mm 1 mps 689 mmHg 30%
    15:00 +5°C° 0 mm 1 mps 689 mmHg 29%
    16:00 +4°C° 0 mm 1 mps 690 mmHg 32%
    17:00 +2°C° 0 mm 1 mps 690 mmHg 35%
    18:00 -1°C° 0 mm 2 mps 690 mmHg 38%
    19:00 -1°C° 0 mm 2 mps 690 mmHg 38%
    20:00 -2°C° 0 mm 2 mps 690 mmHg 37%
    21:00 -2°C° 0 mm 2 mps 691 mmHg 37%
    22:00 -2°C° 0 mm 2 mps 691 mmHg 36%
    23:00 -3°C° 0 mm 2 mps 691 mmHg 35%

    Day after tomorrow, 20 January, Sunday

    Time Temperature Precipitation Wind Pressure Humidity
    00:00 -3°C° 0 mm 2 mps 691 mmHg 34%
    01:00 -3°C° 0 mm 2 mps 691 mmHg 34%
    02:00 -3°C° 0 mm 2 mps 691 mmHg 33%
    03:00 -3°C° 0 mm 2 mps 691 mmHg 33%
    04:00 -3°C° 0 mm 2 mps 691 mmHg 33%
    05:00 -3°C° 0 mm 2 mps 691 mmHg 33%
    06:00 -3°C° 0 mm 2 mps 691 mmHg 32%
    07:00 -2°C° 0 mm 2 mps 691 mmHg 31%
    08:00 -2°C° 0 mm 2 mps 691 mmHg 29%
    09:00 -1°C° 0 mm 2 mps 692 mmHg 28%
    10:00 +2°C° 0 mm 1 mps 691 mmHg 26%
    11:00 +3°C° 0 mm 1 mps 691 mmHg 24%
    12:00 +4°C° 0 mm 1 mps 690 mmHg 22%
    13:00 +5°C° 0 mm 1 mps 690 mmHg 22%
    14:00 +5°C° 0 mm 1 mps 690 mmHg 23%
    15:00 +5°C° 0 mm 1 mps 690 mmHg 23%
    16:00 +4°C° 0 mm 1 mps 690 mmHg 26%
    17:00 +3°C° 0 mm 1 mps 690 mmHg 29%
    18:00 +1°C° 0 mm 1 mps 690 mmHg 32%
    19:00 +1°C° 0 mm 1 mps 691 mmHg 32%
    20:00 +1°C° 0 mm 1 mps 691 mmHg 33%
    21:00 0°C° 0 mm 1 mps 691 mmHg 33%
    22:00 -2°C° 0 mm 2 mps 691 mmHg 33%
    23:00 -2°C° 0 mm 2 mps 691 mmHg 33%

    21 January, Monday

    Time Temperature Precipitation Wind Pressure Humidity
    00:00 -3°C° 0 mm 2 mps 692 mmHg 33%
    01:00 -3°C° 0 mm 2 mps 691 mmHg 34%
    02:00 -3°C° 0 mm 2 mps 691 mmHg 34%
    03:00 -3°C° 0 mm 2 mps 691 mmHg 34%
    04:00 -3°C° 0 mm 2 mps 691 mmHg 34%
    05:00 -4°C° 0 mm 2 mps 691 mmHg 34%
    06:00 -4°C° 0 mm 2 mps 691 mmHg 34%
    07:00 -3°C° 0 mm 2 mps 691 mmHg 33%
    08:00 0°C° 0 mm 1 mps 691 mmHg 31%
    09:00 0°C° 0 mm 1 mps 691 mmHg 30%
    10:00 +1°C° 0 mm 1 mps 691 mmHg 28%
    11:00 +2°C° 0 mm 1 mps 690 mmHg 26%
    12:00 +3°C° 0 mm 1 mps 690 mmHg 25%
    13:00 +4°C° 0 mm 1 mps 689 mmHg 25%
    14:00 +4°C° 0 mm 1 mps 689 mmHg 25%
    15:00 +4°C° 0 mm 1 mps 688 mmHg 25%
    16:00 +3°C° 0 mm 1 mps 689 mmHg 28%
    17:00 +2°C° 0 mm 1 mps 689 mmHg 31%
    18:00 +1°C° 0 mm 1 mps 689 mmHg 34%
    19:00 -2°C° 0 mm 2 mps 690 mmHg 35%
    20:00 -2°C° 0 mm 2 mps 690 mmHg 36%
    21:00 -2°C° 0 mm 2 mps 690 mmHg 36%
    22:00 -3°C° 0 mm 2 mps 690 mmHg 37%
    23:00 -3°C° 0 mm 2 mps 690 mmHg 37%

    22 January, Tuesday

    Time Temperature Precipitation Wind Pressure Humidity
    00:00 -3°C° 0 mm 2 mps 690 mmHg 38%
    01:00 -3°C° 0 mm 2 mps 690 mmHg 38%
    02:00 -3°C° 0 mm 2 mps 690 mmHg 38%
    03:00 -4°C° 0 mm 2 mps 689 mmHg 38%
    04:00 -4°C° 0 mm 2 mps 689 mmHg 38%
    05:00 -4°C° 0 mm 2 mps 689 mmHg 38%
    06:00 -4°C° 0 mm 2 mps 689 mmHg 38%
    07:00 -3°C° 0 mm 2 mps 689 mmHg 36%
    08:00 -2°C° 0 mm 2 mps 690 mmHg 35%
    09:00 -2°C° 0 mm 2 mps 690 mmHg 33%
    10:00 +1°C° 0 mm 2 mps 689 mmHg 32%
    11:00 +3°C° 0 mm 1 mps 689 mmHg 31%
    12:00 +4°C° 0 mm 1 mps 688 mmHg 29%
    13:00 +4°C° 0 mm 1 mps 688 mmHg 30%
    14:00 +5°C° 0 mm 1 mps 687 mmHg 30%
    15:00 +5°C° 0 mm 1 mps 687 mmHg 31%
    16:00 +4°C° 0 mm 1 mps 687 mmHg 34%
    17:00 +3°C° 0 mm 1 mps 688 mmHg 37%
    18:00 +1°C° 0 mm 1 mps 688 mmHg 41%
    19:00 +1°C° 0 mm 1 mps 688 mmHg 41%
    20:00 +1°C° 0 mm 1 mps 689 mmHg 41%
    21:00 -2°C° 0 mm 2 mps 689 mmHg 41%
    22:00 -2°C° 0 mm 2 mps 689 mmHg 41%
    23:00 0°C° 0 mm 1 mps 689 mmHg 42%

    23 January, Wednesday

    Time Temperature Precipitation Wind Pressure Humidity
    00:00 -1°C° 0 mm 1 mps 689 mmHg 42%
    01:00 -1°C° 0 mm 1 mps 689 mmHg 42%
    02:00 -1°C° 0 mm 1 mps 689 mmHg 43%
    03:00 -1°C° 0 mm 1 mps 689 mmHg 43%
    04:00 -1°C° 0 mm 1 mps 689 mmHg 43%
    05:00 -1°C° 0 mm 1 mps 689 mmHg 44%
    06:00 -2°C° 0 mm 1 mps 689 mmHg 44%
    07:00 -1°C° 0 mm 1 mps 689 mmHg 42%
    08:00 0°C° 0 mm 1 mps 689 mmHg 40%
    09:00 +1°C° 0 mm 1 mps 690 mmHg 38%
    10:00 +2°C° 0 mm 1 mps 689 mmHg 37%
    11:00 +2°C° 0 mm 2 mps 689 mmHg 35%
    12:00 +3°C° 0 mm 2 mps 689 mmHg 33%
    13:00 +3°C° 0 mm 2 mps 688 mmHg 34%
    14:00 +3°C° 0 mm 2 mps 688 mmHg 34%
    15:00 +4°C° 0 mm 2 mps 688 mmHg 34%
    16:00 +3°C° 0 mm 2 mps 688 mmHg 38%
    17:00 +1°C° 0 mm 2 mps 689 mmHg 41%
    18:00 -1°C° 0 mm 2 mps 689 mmHg 45%
    19:00 -1°C° 0 mm 2 mps 689 mmHg 45%
    20:00 -1°C° 0 mm 2 mps 689 mmHg 46%
    21:00 -2°C° 0 mm 2 mps 690 mmHg 47%
    22:00 -2°C° 0 mm 2 mps 690 mmHg 48%
    23:00 -2°C° 0 mm 2 mps 690 mmHg 48%
    Show more